Bundaberg, Queensland

11:12 PM AEST on September 29, 2016 (GMT +1000)
Bundaberg

Weather History for 94387 - November, 2013

Change the Weather History Date:

Sunday, November 17, 2013

  Actual Average Record
Temperature  
Mean Temperature 76 °F -  
Max Temperature 87 °F - - ()
Min Temperature 64 °F - - ()
Cooling Degree Days 10    
Growing Degree Days 26 (Base 50)    
Moisture  
Dew Point 66 °F    
Average Humidity 76    
Maximum Humidity 94    
Minimum Humidity 36    
Precipitation  
Precipitation 1.26 in - - ()
Sea Level Pressure  
Sea Level Pressure 29.81 in    
Wind  
Wind Speed 10 mph ()    
Max Wind Speed 18 mph    
Max Gust Speed 31 mph    
Visibility 5.5 miles    
Events Rain    
T = Trace of Precipitation, MM = Missing Value Source: Averaged Metar Reports

Daily Weather History Graph

Daily Weather History Graph

Search for Another Location

Airport or City:

Trip Planner

Search our weather history database for the weather conditions in past years. The results will help you decide how hot, cold, wet, or windy it might be!

Date:

Astronomy

Nov. 17, 2013 Rise Set
Actual Time 4:55 AM AEST 6:16 PM AEST
Civil Twilight 4:30 AM AEST 6:41 PM AEST
Nautical Twilight 4:00 AM AEST 7:10 PM AEST
Astronomical Twilight 3:30 AM AEST 7:41 PM AEST
Moon 5:55 PM AEST (11/17) 4:25 AM AEST (11/17)
Length of Visible Light 14h 10m
Length of Day
13h 21m
Full, 100% of the Moon is Illuminated
Nov 17
Full
Nov 18
Full
Nov 26
Last Quarter
Dec 3
New
Dec 10
First Quarter

Hourly Weather History & Observations

Time (AEST) Temp. Heat Index Dew Point Humidity Pressure Visibility Wind Dir Wind Speed Gust Speed Precip Events Conditions
12:00 AM 75 °F - 69 °F 78% 29.80 in - North 15.0 mph - -  
12:00 AM 75.2 °F - 69.8 °F 83% 29.80 in 6.2 mi North 15.0 mph - N/A   Unknown
1:00 AM 75.2 °F - 69.8 °F 83% 29.80 in 6.2 mi North 11.5 mph - N/A   Scattered Clouds
2:00 AM 75.2 °F - 69.8 °F 83% 29.77 in 6.2 mi North 12.7 mph - N/A   Mostly Cloudy
3:00 AM 75 °F - 69 °F 78% 29.78 in - North 11.5 mph - -  
3:00 AM 75.2 °F - 69.8 °F 83% 29.77 in 6.2 mi North 11.5 mph - N/A   Scattered Clouds
4:00 AM 73.4 °F - 69.8 °F 88% 29.77 in 6.2 mi North 10.4 mph - N/A   Scattered Clouds
5:00 AM 73.4 °F - 69.8 °F 88% 29.80 in 6.2 mi NNW 9.2 mph - N/A   Unknown
6:00 AM 74 °F - 70 °F 84% 29.81 in - WNW 6.9 mph - -   Overcast
6:00 AM 73.4 °F - 69.8 °F 88% 29.80 in 6.2 mi WNW 6.9 mph - N/A   Mostly Cloudy
7:00 AM 77.0 °F - 71.6 °F 83% 29.83 in 6.2 mi NW 6.9 mph - N/A   Mostly Cloudy
7:30 AM 78.8 °F - 68.0 °F 69% 29.83 in 6.2 mi NW 6.9 mph - N/A   Scattered Clouds
7:35 AM 80.6 °F 83.9 °F 69.8 °F 70% 29.83 in 6.2 mi NW 6.9 mph - N/A   Scattered Clouds
8:00 AM 80.6 °F 82.3 °F 64.4 °F 58% 29.83 in 6.2 mi NNW 11.5 mph - N/A   Unknown
9:00 AM 84 °F - 61 °F 36% 29.83 in - NNW 8.1 mph - -  
9:00 AM 84.2 °F 84.4 °F 60.8 °F 45% 29.83 in 6.2 mi NNW 8.1 mph - N/A   Unknown
10:00 AM 86.0 °F 84.9 °F 57.2 °F 37% 29.83 in 6.2 mi NW 6.9 mph - N/A   Unknown
11:00 AM 86.0 °F 87.3 °F 64.4 °F 48% 29.80 in 6.2 mi ENE 6.9 mph - N/A   Scattered Clouds
12:00 PM 87 °F - 65 °F 37% 29.80 in - NNE 15.0 mph - -  
12:00 PM 86.0 °F 87.3 °F 64.4 °F 48% 29.80 in 6.2 mi NNE 15.0 mph - N/A   Unknown
1:00 PM 86.0 °F 89.4 °F 68.0 °F 55% 29.77 in 6.2 mi NNE 17.3 mph - N/A   Unknown
2:00 PM 82.4 °F 85.4 °F 68.0 °F 62% 29.74 in 6.2 mi NNE 16.1 mph - N/A   Scattered Clouds
3:00 PM 80 °F - 69 °F 63% 29.75 in - NE 17.3 mph - -  
3:00 PM 80.6 °F 83.9 °F 69.8 °F 70% 29.74 in 6.2 mi NE 17.3 mph - N/A   Scattered Clouds
4:03 PM 78.8 °F - 69.8 °F 74% 29.77 in 1.4 mi NE 17.3 mph - N/A Rain Light Rain Showers
4:22 PM 77.0 °F - 69.8 °F 78% 29.80 in 6.2 mi NNE 17.3 mph - N/A Rain Light Rain Showers
4:35 PM 66.2 °F - 57.2 °F 73% 29.80 in 6.2 mi SSE 18.4 mph 31.1 mph N/A Rain Light Rain Showers
5:00 PM 68.0 °F - 62.6 °F 83% 29.80 in 6.2 mi SSW 16.1 mph - N/A   Overcast
5:28 PM 66.2 °F - 62.6 °F 88% 29.80 in 3.1 mi South 12.7 mph - N/A Rain Heavy Rain Showers
5:30 PM 66.2 °F - 62.6 °F 88% 29.80 in 2.8 mi South 12.7 mph - N/A   Overcast
6:00 PM 66 °F - 64 °F 89% 29.81 in 4 mi SE 12.7 mph - -   Overcast
6:00 PM 66.2 °F - 64.4 °F 94% 29.80 in 3.7 mi SE 12.7 mph - N/A   Overcast
6:05 PM 66.2 °F - 62.6 °F 88% 29.83 in 3.7 mi SE 6.9 mph - N/A Rain Heavy Rain
6:06 PM 64.4 °F - 62.6 °F 94% 29.83 in 3.1 mi SSE 6.9 mph - N/A Rain Heavy Rain
7:00 PM 66.2 °F - 64.4 °F 94% 29.89 in - West 11.5 mph - N/A   Unknown
8:00 PM 66.2 °F - 62.6 °F 88% 29.89 in - NNW 6.9 mph - N/A   Unknown
8:27 PM 66.2 °F - 64.4 °F 94% 29.89 in 6.2 mi ENE 4.6 mph - N/A Rain Light Rain
9:00 PM 66 °F - 64 °F 93% 29.88 in - ESE 4.6 mph - -   Overcast
9:00 PM 66.2 °F - 64.4 °F 94% 29.89 in 6.2 mi ESE 4.6 mph - N/A   Overcast
10:00 PM 66.2 °F - 64.4 °F 94% 29.89 in 6.2 mi ENE 5.8 mph - N/A   Overcast
11:00 PM 66.2 °F - 64.4 °F 94% 29.89 in 6.2 mi SSW 4.6 mph - N/A   Scattered Clouds